Regional Weather Roundup
Issued by NWS

Home | Current Version | Previous Version | Text Only | Print | Product List | Glossary On
Versions: 1 2 3 4 5 6 7 8 9 10 11 12 13 14 15 16 17 18 19 20 21 22 23 24 25 26 27 28 29 30 31 32 33 34 35 36 37 38 39 40 41 42 43 44 45 46 47 48 49 50
958
ASUS45 KSLC 301410
RWRUT

UTAH REGIONAL WEATHER ROUNDUP
NATIONAL WEATHER SERVICE SALT LAKE CITY UT
800 AM MDT SAT APR 30 2016

UTZ001>011-023>025-301500-

NORTHERN UTAH

CITY           SKY/WX    TMP DP  RH WIND       PRES   REMARKS
BRIGHAM CITY   PTSUNNY   44  37  76 CALM      29.94R
HILL AFB       SUNNY     45  34  65 E18       29.92R
LOGAN          CLOUDY    42  39  89 CALM      29.95R
OGDEN          SUNNY     47  35  63 NW6       29.92R
PROVO AIRPORT  MOSUNNY   43  36  75 CALM      29.91R
SALT LAKE CITY MOSUNNY   48  40  73 CALM      29.91R
VERNAL         CLOUDY    41  31  67 VRB3      29.93R
WENDOVER       CLOUDY    46  36  66 S3        29.94R
HEBER CITY     SUNNY     36  32  87 CALM      29.92R

$$

UTZ012>022-026-027-301500-

SOUTHERN/CENTRAL UTAH

CITY           SKY/WX    TMP DP  RH WIND       PRES   REMARKS
BLANDING       MOSUNNY   40  35  82 N7        29.95R
BRYCE CANYON   CLOUDY    34  32  92 NE10      29.88R WCI  26
CEDAR CITY     CLOUDY    40  38  93 N5        29.83R
DELTA          CLOUDY    41  39  93 N7        29.90R
HANKSVILLE     MOSUNNY   43  39  87 W3        29.88R
MILFORD        CLOUDY    43  40  89 N17       29.86R
MOAB/CYNLANDS  CLOUDY    47  39  74 E7        29.86R
PRICE          CLOUDY    43  32  65 NE13      29.89R
ST GEORGE      CLOUDY    50  43  76 CALM      29.82R

$$

REGIONAL REPORTS     COLORADO/ARIZONA

CITY           SKY/WX    TMP DP  RH WIND       PRES   REMARKS
CRAIG, CO      CLOUDY    36  33  89 N7        29.90R WCI  30
GRAND JUNCTION CLOUDY    43  39  86 NW6       29.88R
RIFLE          CLOUDY    41  31  67 W6        29.89R
MONTROSE       CLOUDY    42  34  73 NW7       29.90R
CORTEZ         SUNNY     34  31  88 NE3       29.89R
PAGE, AZ       CLOUDY    49  44  83 SE3       29.83R
GRAND CANYON   CLOUDY    43  34  70 CALM      29.86R
KINGMAN        CLOUDY    55  37  50 S9        29.72R
FLAGSTAFF      CLOUDY    38  37  97 SW5       29.88R WCI  34

$$

REGIONAL REPORTS    NEVADA/IDAHO/WYOMING

CITY           SKY/WX    TMP DP  RH WIND       PRES   REMARKS
LAS VEGAS, NV  RAIN      50  49  96 NW9       29.73R
ELY            CLOUDY    37  35  92 N16       29.91R WCI  28
ELKO           CLOUDY    41  34  76 N6        29.98R
POCATELLO, ID  CLOUDY    41  40  96 CALM      30.00R
BURLEY         CLOUDY    40  36  86 W12G18    30.01R WCI  33
EVANSTON, WY   CLOUDY    33  27  78 E13       29.97R WCI  24
ROCK SPRINGS   LGT SNOW  32  28  85 NE15      29.99R FOG     WCI  22
KEMMERER         N/A     32  30  93 E5        30.00R WCI  27

$$




USA.gov is the U.S. government's official web portal to all federal, state and local government web resources and services.